Flag for Finland Weather past 2 weeks in Helsinki, Finland

Now
63 °F

Clear.


Feels Like: 63 °F
Forecast: 62 / 79 °F
Wind: 1 mph from Southeast

Location: Helsinki Malmi Airport

Current Time: Jul 25, 2014 at 12:33:11 AM

Latest Report: Jul 24, 2014 at 11:50 PM


Visibility: 10 mi

Pressure: 30.18 "Hg

Humidity: 88%

Dew point: 59 °F

Location of HelsinkiLocation

Historic Weather in Helsinki — Graph

°F

Helsinki temperature yesterday

Maximum temperature yesterday: 84 °F (at 11:50 AM)
Minimum temperature yesterday: 61 °F (at 4:50 AM)
Average temperature yesterday: 72 °F

Past Weeks' High & Low Weather Summary

 TemperatureHumidityPressure
High84 °F (Jul 23, 1:50 PM)100% (Jul 15, 12:20 AM)30.27 "Hg (Jul 15, 12:20 AM)
Low46 °F (Jul 11, 3:20 AM)35% (Jul 23, 1:50 PM)29.83 "Hg (Jul 13, 8:50 PM)
Average66 °F73%30.07 "Hg
* Reported Jul 9 11:20 PM — Jul 24 11:20 PM, Helsinki, Weather by CustomWeather, © 2014

Note: Actual official high and low records may vary slightly from our data, if they occured in-between our weather recording intervals... More about our weather records

Advertising

Helsinki weather history for previous 24 hours

 ConditionsComfort  
Time TempWeatherWind HumidityBarometerVisibility
11:20 PM
Jul 24
64 °FFog.No wind88%30.15 "Hg4 mi
10:50 PM66 °FSunny.1 mph83%30.15 "Hg10 mi
10:20 PM68 °FSunny.1 mph78%30.15 "Hg10 mi
9:50 PM70 °FSunny.No wind69%30.15 "Hg10 mi
9:20 PM73 °FSunny.1 mph61%30.15 "Hg10 mi
8:50 PM73 °FSunny.3 mph57%30.15 "Hg10 mi
8:20 PM73 °FPassing clouds.5 mph61%30.15 "HgN/A
7:50 PM73 °FSunny.6 mph65%30.15 "Hg10 mi
7:20 PM75 °FSunny.5 mph61%30.15 "Hg10 mi
6:50 PM75 °FScattered clouds.6 mph57%30.15 "HgN/A
5:50 PM77 °FScattered clouds.8 mph54%30.15 "HgN/A
5:20 PM77 °FScattered clouds.9 mph54%30.15 "HgN/A
4:50 PM77 °FScattered clouds.9 mph54%30.15 "HgN/A
4:20 PM79 °FPassing clouds.10 mph51%30.15 "HgN/A
3:50 PM79 °FSunny.12 mph54%30.15 "Hg10 mi
3:20 PM79 °FSunny.12 mph51%30.15 "Hg10 mi
2:50 PM79 °FPassing clouds.12 mph54%30.15 "HgN/A
2:20 PM79 °FPassing clouds.12 mph54%30.15 "HgN/A
1:50 PM81 °FPassing clouds.10 mph58%30.15 "HgN/A
1:20 PM81 °FPassing clouds.8 mph62%30.15 "HgN/A
12:50 PM82 °FPassing clouds.7 mph51%30.15 "HgN/A
12:20 PM81 °FPassing clouds.7 mph54%30.15 "HgN/A
11:50 AM84 °FSunny.2 mph43%30.15 "Hg10 mi
11:20 AM81 °FSunny.2 mph51%30.15 "Hg10 mi
10:50 AM81 °FSunny.2 mph51%30.15 "Hg10 mi
10:20 AM79 °FSunny.2 mph54%30.15 "Hg10 mi
9:50 AM77 °FSunny.3 mph57%30.15 "Hg10 mi
9:20 AM75 °FSunny.3 mph61%30.15 "Hg10 mi
8:50 AM73 °FPassing clouds.5 mph69%30.15 "HgN/A
8:20 AM73 °FSunny.3 mph69%30.15 "Hg10 mi
7:50 AM72 °FSunny.6 mph69%30.15 "Hg10 mi
7:20 AM70 °FSunny.1 mph73%30.15 "Hg10 mi
6:50 AM66 °FSunny.2 mph78%30.15 "Hg10 mi
6:20 AM63 °FSunny.No wind83%30.15 "Hg10 mi
5:50 AM61 °FSunny.No wind88%30.15 "Hg10 mi
5:20 AM61 °FClear.No wind88%30.15 "Hg10 mi
4:50 AM61 °FClear.No wind88%30.15 "Hg10 mi
4:20 AM63 °FClear.No wind83%30.15 "Hg10 mi
3:50 AM63 °FClear.No wind83%30.15 "Hg10 mi
3:20 AM64 °FClear.1 mph78%30.15 "Hg10 mi
2:50 AM64 °FClear.No wind78%30.15 "Hg10 mi
2:20 AM64 °FClear.1 mph78%30.15 "Hg10 mi
1:50 AM63 °FClear.No wind83%30.15 "Hg10 mi
1:20 AM63 °FClear.1 mph83%30.15 "Hg10 mi
12:50 AM63 °FClear.No wind83%30.15 "Hg10 mi
12:20 AM63 °FClear.No wind88%30.15 "Hg10 mi
Weather by CustomWeather, © 2014

See weather overviewHow to use our weather pages